Plainview, TX

7:07 AM CDT on May 25, 2017 (GMT -0500)
Hale County

Weather History for KPVW - December, 2013

Change the Weather History Date:

Sunday, December 15, 2013

  Actual Average Record
Temperature  
Mean Temperature 38 °F -  
Max Temperature 57 °F 50 °F 77 °F (1908)
Min Temperature 19 °F 24 °F -2 °F (1987)
Degree Days  
Heating Degree Days 27    
Moisture  
Dew Point 19 °F    
Average Humidity 54    
Maximum Humidity 83    
Minimum Humidity 21    
Precipitation  
Precipitation 0.00 in - - ()
Sea Level Pressure  
Sea Level Pressure 30.21 in    
Wind  
Wind Speed 8 mph (West)    
Max Wind Speed 21 mph    
Max Gust Speed 29 mph    
Visibility 10 miles    
Events      
Averages and records for this station are not official NWS values.
T = Trace of Precipitation, MM = Missing Value Source: NWS Daily Summary

Daily Weather History Graph

Daily Weather History Graph

Search for Another Location

Airport or City:

Trip Planner

Search our weather history database for the weather conditions in past years. The results will help you decide how hot, cold, wet, or windy it might be!

Date:

Astronomy

Dec. 15, 2013 Rise Set
Actual Time 7:45 AM CST 5:38 PM CST
Civil Twilight 7:17 AM CST 6:06 PM CST
Nautical Twilight 6:46 AM CST 6:38 PM CST
Astronomical Twilight 6:15 AM CST 7:08 PM CST
Moon 4:41 PM CST (12/15) 6:06 AM CST (12/15)
Length of Visible Light 10h 49m
Length of Day
9h 53m
Waxing Gibbous, 98% of the Moon is Illuminated
Dec 15
Waxing Gibbous
Dec 17
Full
Dec 25
Last Quarter
Jan 1
New
Jan 7
First Quarter

Hourly Weather History & Observations

Time (CST) Temp. Windchill Dew Point Humidity Pressure Visibility Wind Dir Wind Speed Gust Speed Precip Events Conditions
12:15 AM 22.8 °F 15.5 °F 15.6 °F 74% 30.30 in 10.0 mi West 5.8 mph - N/A   Clear
12:35 AM 22.6 °F 15.3 °F 15.8 °F 75% 30.30 in 10.0 mi West 5.8 mph - N/A   Clear
12:55 AM 23.5 °F 16.4 °F 16.5 °F 75% 30.30 in 10.0 mi West 5.8 mph - N/A   Clear
1:15 AM 23.0 °F 15.8 °F 16.5 °F 76% 30.29 in 10.0 mi West 5.8 mph - N/A   Clear
1:35 AM 22.8 °F 16.7 °F 16.7 °F 77% 30.28 in 10.0 mi West 4.6 mph - N/A   Clear
1:55 AM 23.2 °F 17.2 °F 16.9 °F 77% 30.27 in 10.0 mi West 4.6 mph - N/A   Clear
2:15 AM 23.0 °F 17.0 °F 16.7 °F 77% 30.26 in 10.0 mi WSW 4.6 mph - N/A   Clear
2:35 AM 23.4 °F 17.4 °F 16.5 °F 75% 30.27 in 10.0 mi West 4.6 mph - N/A   Clear
2:55 AM 24.8 °F 19.1 °F 18.1 °F 76% 30.27 in 10.0 mi West 4.6 mph - N/A   Clear
3:15 AM 22.8 °F 16.7 °F 16.5 °F 77% 30.26 in 10.0 mi WSW 4.6 mph - N/A   Clear
3:35 AM 22.6 °F 15.3 °F 16.7 °F 78% 30.25 in 10.0 mi WSW 5.8 mph - N/A   Clear
3:55 AM 22.5 °F 15.1 °F 16.9 °F 79% 30.25 in 10.0 mi West 5.8 mph - N/A   Clear
4:15 AM 22.5 °F 14.1 °F 16.5 °F 78% 30.25 in 10.0 mi West 6.9 mph - N/A   Clear
4:35 AM 22.5 °F 14.1 °F 17.1 °F 80% 30.24 in 10.0 mi WSW 6.9 mph - N/A   Clear
4:55 AM 22.5 °F 14.1 °F 16.9 °F 79% 30.24 in 10.0 mi WSW 6.9 mph - N/A   Clear
5:15 AM 21.7 °F 13.2 °F 16.9 °F 82% 30.24 in 10.0 mi WSW 6.9 mph - N/A   Clear
5:35 AM 21.4 °F 13.8 °F 15.8 °F 79% 30.23 in 10.0 mi West 5.8 mph - N/A   Clear
5:55 AM 20.7 °F 13.0 °F 15.8 °F 81% 30.23 in 10.0 mi West 5.8 mph - N/A   Clear
6:15 AM 21.2 °F 13.6 °F 16.0 °F 80% 30.22 in 10.0 mi WSW 5.8 mph - N/A   Clear
6:35 AM 20.5 °F 12.8 °F 15.3 °F 80% 30.22 in 10.0 mi WSW 5.8 mph - N/A   Clear
6:55 AM 19.9 °F 12.1 °F 15.1 °F 81% 30.22 in 10.0 mi WSW 5.8 mph - N/A   Clear
7:15 AM 20.8 °F 13.2 °F 16.5 °F 83% 30.22 in 10.0 mi WSW 5.8 mph - N/A   Clear
7:35 AM 22.1 °F 13.7 °F 17.4 °F 82% 30.22 in 10.0 mi West 6.9 mph - N/A   Clear
7:55 AM 22.6 °F 14.3 °F 17.6 °F 81% 30.22 in 10.0 mi WSW 6.9 mph - N/A   Clear
8:15 AM 22.8 °F 15.5 °F 18.1 °F 82% 30.22 in 10.0 mi WSW 5.8 mph - N/A   Clear
8:35 AM 25.3 °F 18.5 °F 20.3 °F 81% 30.22 in 10.0 mi West 5.8 mph - N/A   Clear
8:55 AM 30.2 °F 22.6 °F 23.7 °F 77% 30.22 in 10.0 mi West 8.1 mph - N/A   Clear
9:15 AM 34.7 °F 27.5 °F 25.7 °F 70% 30.22 in 10.0 mi West 9.2 mph - N/A   Clear
9:35 AM 40.1 °F 31.6 °F 25.5 °F 56% 30.23 in 10.0 mi West 16.1 mph - N/A   Clear
9:55 AM 42.3 °F 34.8 °F 23.4 °F 47% 30.23 in 10.0 mi West 15.0 mph - N/A   Clear
10:15 AM 45.7 °F 38.8 °F 24.4 °F 43% 30.24 in 10.0 mi WSW 16.1 mph - N/A   Clear
10:35 AM 47.3 °F - 25.5 °F 43% 30.24 in 10.0 mi WSW 12.7 mph 19.6 mph N/A   Clear
10:55 AM 50.0 °F - 25.5 °F 39% 30.23 in 10.0 mi WSW 16.1 mph - N/A   Clear
11:15 AM 50.0 °F - 24.3 °F 37% 30.23 in 10.0 mi WSW 15.0 mph - N/A   Clear
11:35 AM 50.0 °F - 23.4 °F 35% 30.23 in 10.0 mi SW 15.0 mph - N/A   Clear
11:55 AM 50.0 °F - 22.6 °F 34% 30.22 in 10.0 mi West 15.0 mph 21.9 mph N/A   Clear
12:15 PM 50.0 °F - 21.2 °F 32% 30.21 in 10.0 mi WSW 15.0 mph 18.4 mph N/A   Clear
12:35 PM 52.0 °F - 21.6 °F 30% 30.21 in 10.0 mi WSW 16.1 mph 21.9 mph N/A   Clear
12:55 PM 54.9 °F - 22.6 °F 29% 30.20 in 10.0 mi WSW 20.7 mph 27.6 mph N/A   Clear
1:15 PM 54.9 °F - 20.8 °F 27% 30.18 in 10.0 mi West 18.4 mph 21.9 mph N/A   Clear
1:35 PM 57.0 °F - 20.7 °F 24% 30.18 in 10.0 mi West 18.4 mph 28.8 mph N/A   Clear
1:55 PM 57.4 °F - 18.7 °F 22% 30.17 in 10.0 mi WSW 20.7 mph 27.6 mph N/A   Clear
2:15 PM 57.4 °F - 17.6 °F 21% 30.17 in 10.0 mi West 20.7 mph - N/A   Clear
2:35 PM 57.4 °F - 17.2 °F 21% 30.16 in 10.0 mi West 18.4 mph - N/A   Clear
2:55 PM 57.4 °F - 16.9 °F 21% 30.16 in 10.0 mi WSW 17.3 mph 21.9 mph N/A   Clear
3:15 PM 57.4 °F - 17.1 °F 21% 30.15 in 10.0 mi West 16.1 mph - N/A   Clear
3:35 PM 57.4 °F - 17.4 °F 21% 30.15 in 10.0 mi West 11.5 mph 20.7 mph N/A   Clear
3:55 PM 57.4 °F - 17.6 °F 21% 30.15 in 10.0 mi WSW 13.8 mph - N/A   Clear
4:15 PM 57.4 °F - 18.0 °F 21% 30.15 in 10.0 mi West 11.5 mph - N/A   Clear
4:35 PM 57.4 °F - 17.8 °F 21% 30.16 in 10.0 mi West 12.7 mph - N/A   Clear
4:55 PM 54.9 °F - 17.8 °F 23% 30.16 in 10.0 mi West 8.1 mph - N/A   Clear
5:15 PM 52.3 °F - 19.2 °F 27% 30.15 in 10.0 mi West 5.8 mph - N/A   Clear
5:35 PM 50.0 °F - 20.3 °F 31% 30.16 in 10.0 mi West 6.9 mph - N/A   Clear
5:55 PM 44.6 °F 40.7 °F 17.4 °F 34% 30.17 in 10.0 mi West 6.9 mph - N/A   Clear
6:15 PM 41.7 °F 37.3 °F 16.2 °F 36% 30.17 in 10.0 mi West 6.9 mph - N/A   Clear
6:35 PM 39.7 °F 34.9 °F 16.5 °F 39% 30.18 in 10.0 mi West 6.9 mph - N/A   Clear
6:55 PM 38.5 °F 34.1 °F 16.7 °F 41% 30.18 in 10.0 mi West 5.8 mph - N/A   Clear
7:15 PM 36.5 °F 31.0 °F 16.9 °F 45% 30.18 in 10.0 mi West 6.9 mph - N/A   Clear
7:35 PM 36.1 °F 30.6 °F 17.2 °F 46% 30.18 in 10.0 mi West 6.9 mph - N/A   Clear
7:55 PM 34.7 °F 31.8 °F 16.7 °F 48% 30.18 in 10.0 mi West 3.5 mph - N/A   Clear
8:15 PM 34.7 °F 28.1 °F 17.6 °F 50% 30.18 in 10.0 mi West 8.1 mph - N/A   Clear
8:35 PM 34.7 °F 28.8 °F 18.9 °F 52% 30.18 in 10.0 mi West 6.9 mph - N/A   Clear
8:55 PM 34.7 °F 28.8 °F 18.0 °F 51% 30.18 in 10.0 mi West 6.9 mph - N/A   Clear
9:15 PM 34.7 °F 27.5 °F 18.0 °F 51% 30.19 in 10.0 mi West 9.2 mph - N/A   Clear
9:35 PM 34.7 °F 27.5 °F 18.5 °F 52% 30.18 in 10.0 mi West 9.2 mph - N/A   Clear
9:55 PM 32.0 °F 27.5 °F 17.4 °F 55% 30.18 in 10.0 mi West 4.6 mph - N/A   Clear
10:15 PM 32.4 °F 25.3 °F 18.0 °F 55% 30.18 in 10.0 mi WNW 8.1 mph - N/A   Clear
10:35 PM 32.0 °F 26.4 °F 18.5 °F 58% 30.19 in 10.0 mi WNW 5.8 mph - N/A   Clear
10:55 PM 31.3 °F 25.6 °F 18.3 °F 59% 30.19 in 10.0 mi WNW 5.8 mph - N/A   Clear
11:15 PM 30.0 °F 23.2 °F 18.5 °F 62% 30.20 in 10.0 mi West 6.9 mph - N/A   Clear
11:35 PM 30.0 °F 24.1 °F 18.7 °F 63% 30.18 in 10.0 mi WNW 5.8 mph - N/A   Clear
11:55 PM 29.3 °F 23.2 °F 18.5 °F 64% 30.18 in 10.0 mi West 5.8 mph - N/A   Clear